{"data":{"norad_id":36088,"epoch":"2026-05-25T04:01:31.493568Z","epoch_age_seconds":63615,"freshness":"FRESH","line1":"1 36088U 09061A   26145.16772562  .00000665  00000+0  13662-3 0  9992","line2":"2 36088  98.0045 126.8094 0012312  94.1193  36.4068 14.63666524881129","mean_motion":14.63666524,"eccentricity":0.0012312,"inclination_deg":98.0045,"raan_deg":126.8094,"arg_perigee_deg":94.1193,"mean_anomaly_deg":36.4068,"bstar":0.00013662,"rev_number":88112,"period_min":98.383065841028,"perigee_km":672.66818410902,"apogee_km":690.0514891195,"semimajor_km":7059.4968366143,"source":"CELESTRAK","updated_at":"2026-05-25T13:37:55.187727Z"}}